Eastsound, WA
on Friday, December 28, 2012

Friday
Previous Day Next Day
Daily Summary
 ActualAverage (KBLI)Record (KBLI)
Temperature
Mean Temperature °F 38°F  
Max Temperature 42°F 44°F 59°F (1986)
Min Temperature 39°F 32°F 1°F (1968)
Degree Days
Heating Degree Days 24 27  
Month to date heating degree days 746  
Cooling Degree Days 0 0  
Month to date cooling degree days 0  
Year to date cooling degree days 42  
Moisture
Dew Point 37°F   
Average Humidity 88    
Maximum Humidity 100    
Minimum Humidity 76    
Precipitation
Precipitation 0.00 in 0.12 in 0.99 in (1949)
Month to date precipitation 3.87  
Year to date precipitation 35.48  
Wind
Wind Speed 4 mph   
Max Wind Speed 8 mph   
Max Gust Speed mph   
Visibility 10 miles   
Events Rain   

Key: T is trace of precipitation, MM is missing value
Source: NWS Daily Summary
Time(PST)TemperatureDew PointHumidity Pressure Visibility Wind DirectionWind SpeedGust SpeedPrecipitationEvents Conditions
12:15 AM 41.0°F 37.4°F 87% 30.13 in 10.0 miles South 8.1 mph - N/A   Mostly Cloudy
12:35 AM 41.0°F 39.2°F 93% 30.13 in 10.0 miles South 5.8 mph - N/A   Scattered Clouds
12:55 AM 41.0°F 37.4°F 87% 30.13 in 10.0 miles Calm Calm - N/A   Mostly Cloudy
1:15 AM 42.8°F 37.4°F 81% 30.13 in 10.0 miles South 5.8 mph - N/A   Overcast
1:35 AM 42.8°F 37.4°F 81% 30.13 in 10.0 miles South 6.9 mph - N/A   Overcast
1:55 AM 42.8°F 39.2°F 87% 30.13 in 10.0 miles South 5.8 mph - N/A   Mostly Cloudy
2:15 AM 42.8°F 37.4°F 81% 30.13 in 10.0 miles South 4.6 mph - N/A   Mostly Cloudy
2:35 AM 42.8°F 37.4°F 81% 30.13 in 10.0 miles Calm Calm - N/A   Scattered Clouds
2:55 AM 42.8°F 37.4°F 81% 30.13 in 10.0 miles SSW 6.9 mph - N/A   Scattered Clouds
3:15 AM 41.0°F 37.4°F 87% 30.12 in 10.0 miles South 5.8 mph - N/A   Scattered Clouds
3:35 AM 41.0°F 37.4°F 87% 30.12 in 10.0 miles South 4.6 mph - N/A   Partly Cloudy
3:55 AM 41.0°F 37.4°F 87% 30.12 in 10.0 miles SSE 6.9 mph - N/A   Scattered Clouds
4:15 AM 42.8°F 37.4°F 81% 30.12 in 10.0 miles SSE 4.6 mph - N/A   Mostly Cloudy
4:35 AM 42.8°F 37.4°F 81% 30.11 in 10.0 miles SE 3.5 mph - N/A   Partly Cloudy
5:15 AM 42.8°F 37.4°F 81% 30.11 in 10.0 miles SSW 3.5 mph - N/A   Overcast
5:35 AM 41.0°F 37.4°F 87% 30.11 in 10.0 miles South 3.5 mph - N/A   Overcast
5:55 AM 42.8°F 35.6°F 76% 30.11 in 10.0 miles Calm Calm - N/A   Overcast
6:15 AM 41.0°F 37.4°F 87% 30.11 in 10.0 miles ENE 4.6 mph - N/A   Overcast
6:55 AM 42.8°F 37.4°F 81% 30.10 in 10.0 miles Calm Calm - N/A   Mostly Cloudy
7:15 AM 41.0°F 37.4°F 87% 30.10 in 10.0 miles Calm Calm - N/A   Overcast
7:35 AM 39.2°F 37.4°F 93% 30.10 in 10.0 miles East 8.1 mph - N/A   Overcast
7:55 AM 39.2°F 37.4°F 93% 30.10 in 10.0 miles ENE 5.8 mph - N/A   Overcast
8:15 AM 39.2°F 37.4°F 93% 30.10 in 10.0 miles ENE 6.9 mph - N/A   Overcast
8:35 AM 39.2°F 37.4°F 93% 30.11 in 10.0 miles East 5.8 mph - N/A   Overcast
8:55 AM 39.2°F 37.4°F 93% 30.11 in 10.0 miles East 5.8 mph - N/A   Mostly Cloudy
9:15 AM 39.2°F 37.4°F 93% 30.12 in 10.0 miles East 3.5 mph - N/A   Mostly Cloudy
9:35 AM 39.2°F 37.4°F 93% 30.12 in 10.0 miles East 3.5 mph - N/A   Partly Cloudy
9:55 AM 39.2°F 37.4°F 93% 30.12 in 10.0 miles ENE 5.8 mph - N/A   Partly Cloudy
10:15 AM 39.2°F 37.4°F 93% 30.12 in 10.0 miles East 3.5 mph - N/A   Partly Cloudy
10:35 AM 39.2°F 37.4°F 93% 30.12 in 10.0 miles ENE 8.1 mph - N/A   Partly Cloudy
10:55 AM 41.0°F 37.4°F 87% 30.12 in 10.0 miles NE 5.8 mph - N/A   Partly Cloudy
11:15 AM 41.0°F 37.4°F 87% 30.12 in 10.0 miles East 5.8 mph - N/A   Partly Cloudy
11:35 AM 41.0°F 37.4°F 87% 30.12 in 10.0 miles ENE 5.8 mph - N/A   Mostly Cloudy
11:55 AM 41.0°F 37.4°F 87% 30.11 in 10.0 miles East 6.9 mph - N/A   Mostly Cloudy
12:15 PM 41.0°F 37.4°F 87% 30.11 in 10.0 miles ENE 5.8 mph - N/A   Overcast
12:35 PM 41.0°F 37.4°F 87% 30.11 in 10.0 miles ENE 6.9 mph - N/A   Mostly Cloudy
12:55 PM 41.0°F 37.4°F 87% 30.10 in 10.0 miles ENE 5.8 mph - N/A   Mostly Cloudy
1:35 PM 41.0°F 37.4°F 87% 30.10 in 10.0 miles ENE 4.6 mph - N/A   Mostly Cloudy
1:55 PM 41.0°F 37.4°F 87% 30.10 in 10.0 miles NE 4.6 mph - N/A   Overcast
2:15 PM 41.0°F 37.4°F 87% 30.11 in 10.0 miles ENE 3.5 mph - N/A   Overcast
2:35 PM 42.8°F 37.4°F 81% 30.11 in 10.0 miles NE 4.6 mph - N/A   Overcast
2:55 PM 41.0°F 37.4°F 87% 30.11 in 10.0 miles ENE 4.6 mph - N/A   Overcast
3:35 PM 41.0°F 37.4°F 87% 30.11 in 10.0 miles NE 3.5 mph - N/A   Overcast
4:15 PM 41.0°F 37.4°F 87% 30.12 in 10.0 miles Calm Calm - N/A   Overcast
4:35 PM 41.0°F 37.4°F 87% 30.12 in 10.0 miles Calm Calm - N/A   Overcast
5:15 PM 41.0°F 37.4°F 87% 30.12 in 10.0 miles East 3.5 mph - N/A   Overcast
5:35 PM 41.0°F 37.4°F 87% 30.12 in 10.0 miles ENE 3.5 mph - N/A   Overcast
5:55 PM 41.0°F 37.4°F 87% 30.12 in 10.0 miles Calm Calm - N/A   Mostly Cloudy
6:15 PM 41.0°F 37.4°F 87% 30.12 in 10.0 miles Calm Calm - N/A   Overcast
7:15 PM 41.0°F 37.4°F 87% 30.13 in 10.0 miles Calm Calm - N/A   Overcast
7:35 PM 41.0°F 37.4°F 87% 30.13 in 10.0 miles Calm Calm - N/A Rain Light Rain
7:55 PM 39.2°F 37.4°F 93% 30.13 in 10.0 miles North - - N/A Rain Light Rain
8:15 PM 39.2°F 37.4°F 93% 30.13 in 10.0 miles North - - N/A   Mostly Cloudy
8:35 PM 39.2°F 37.4°F 93% 30.13 in 10.0 miles Calm Calm - N/A Rain Light Rain
8:55 PM 39.2°F 37.4°F 93% 30.13 in 10.0 miles Calm Calm - N/A Rain Light Rain
9:15 PM 39.2°F 37.4°F 93% 30.13 in 10.0 miles Calm Calm - N/A Rain Light Rain
9:35 PM 39.2°F 37.4°F 93% 30.14 in 9.0 miles Calm Calm - N/A Rain Light Rain
9:55 PM 39.2°F 37.4°F 93% 30.14 in 10.0 miles Calm Calm - N/A   Scattered Clouds
10:15 PM 39.2°F 37.4°F 93% 30.14 in 9.0 miles Calm Calm - N/A   Scattered Clouds
10:35 PM 39.2°F 37.4°F 93% 30.14 in 10.0 miles Calm Calm - N/A   Partly Cloudy
11:15 PM 39.2°F 37.4°F 93% 30.14 in 10.0 miles Calm Calm - N/A   Partly Cloudy
11:35 PM 39.2°F 37.4°F 93% 30.14 in 10.0 miles Calm Calm - N/A   Mostly Cloudy
11:55 PM 39.2°F 39.2°F 100% 30.14 in 10.0 miles Calm Calm - N/A   Overcast
Moon Phase
Dec. 28 Jan. 04 Jan. 11 Jan. 18 Jan. 26
Sunrise:08:04 AM (PST) Moon Rise:05:10 PM (PST)12/28
Sunset:04:22 PM (PST) Moon Set:07:57 AM (PST)12/28

Copyright © 2014 The Weather Underground, Inc.